This is the latest recevied weather packets stored in our database for station/object F4IVW-13. If no packets are shown the sender has not sent any weather packets the latest 1 day(s).
| Time | Temp. | Humidity | Pressure | Rain* | Wind** | Luminosity | Snow |
|---|---|---|---|---|---|---|---|
| 1778064307 | 15.56° C | 99% | 1013.7 hPa | 1.27 mm | - | 26 W/m² | - |
| 1778063036 | 12.22° C | 99% | 1013.8 hPa | 1.27 mm | - | 37 W/m² | - |
| 1778062719 | 12.22° C | 99% | 1013.8 hPa | 1.27 mm | - | 33 W/m² | - |
| 1778062402 | 12.22° C | 99% | 1013.8 hPa | 1.27 mm | - | 6 W/m² | - |
| 1778062085 | 12.22° C | 99% | 1013.8 hPa | 1.27 mm | - | 2 W/m² | - |
| 1778061768 | 12.78° C | 99% | 1013.5 hPa | 1.02 mm | - | 0 W/m² | - |
| 1778060181 | 13.33° C | 99% | 1013.5 hPa | 0 mm | - | 19 W/m² | - |
| 1778059546 | 12.22° C | 99% | 1013.3 hPa | 0 mm | - | 22 W/m² | - |
| 1778059237 | 11.67° C | 99% | 1013.2 hPa | 0 mm | - | 28 W/m² | - |
| 1778058594 | 11.67° C | 99% | 1013.3 hPa | 0 mm | - | 0 W/m² | - |
| 1778058280 | 12.22° C | 99% | 1013.2 hPa | 0 mm | - | 0 W/m² | - |
| 1778057331 | 12.22° C | 99% | 1012.9 hPa | 0 mm | - | 5 W/m² | - |
| 1778057005 | 12.22° C | 99% | 1012.9 hPa | 0.25 mm | - | 7 W/m² | - |
| 1778056374 | 15° C | 99% | 1012.9 hPa | 0.25 mm | - | 1 W/m² | - |
| 1778055736 | 16.11° C | 99% | 1012.8 hPa | 0 mm | - | 14 W/m² | - |
| 1778055099 | 13.89° C | 99% | 1012.9 hPa | 0 mm | - | 93 W/m² | - |
| 1778054146 | 11.67° C | 99% | 1013 hPa | 0 mm | - | 4 W/m² | - |
| 1778053829 | 11.67° C | 99% | 1012.9 hPa | 0 mm | - | 5 W/m² | - |
| 1778053191 | 12.22° C | 99% | 1012.9 hPa | 0 mm | - | 2 W/m² | - |
| 1778051621 | 12.22° C | 99% | 1013 hPa | 0 mm | - | 8 W/m² | - |
| 1778050654 | 10.56° C | 99% | 1012.8 hPa | 0 mm | - | 0 W/m² | - |
| 1778047786 | 10° C | 99% | 1012.9 hPa | 0 mm | - | 1 W/m² | - |
| 1778047152 | 10° C | 99% | 1012.8 hPa | 0 mm | - | 1 W/m² | - |
| 1778046835 | 9.44° C | 99% | 1012.8 hPa | 0 mm | - | 0 W/m² | - |
| 1778045249 | 9.44° C | 99% | 1012.6 hPa | 0 mm | - | 0 W/m² | - |
* Rain latest hour (hover to see other rain measurements)
** Current wind speed in m/s (hover to see current wind gust speed)